Home   Weather   Hanau   Past weeks

Flag for Germany Past Weather in Hanau, Hesse, Germany — Yesterday and Last 2 Weeks

Now
66 °F

Strong thunderstorms. Passing clouds.


Feels Like: 66 °F
Forecast: 62 / 72 °F
Wind: 18 mph from West

Location: Frankfurt-M-Flughafen Airport

Current Time: Jul 23, 2017 at 1:07:20 am

Latest Report: Jul 23, 2017 at 12:50 am


Visibility: 4 mi

Pressure: 29.89 "Hg

Humidity: 94%

Dew Point: 64 °F

Location of HanauLocation

Past Weather in Hanau — Graph

°F

Hanau Temperature Yesterday

Maximum temperature yesterday: 79 °F (at 5:50 pm)
Minimum temperature yesterday: 64 °F (at 2:20 am)
Average temperature yesterday: 71 °F

High & Low Weather Summary for the Past Weeks

 TemperatureHumidityPressure
High93 °F (Jul 19, 4:20 pm)100% (Jul 9, 11:20 pm)30.24 "Hg (Jul 9, 11:20 pm)
Low48 °F (Jul 13, 4:50 am)29% (Jul 8, 3:20 pm)29.74 "Hg (Jul 10, 2:20 pm)
Average70 °F69%29.98 "Hg
* Reported Jul 7 11:20 pm — Jul 22 11:50 pm, Hanau. Weather by CustomWeather, © 2017

Note: Actual official high and low records may vary slightly from our data, if they occured in-between our weather recording intervals... More about our weather records

Advertising

Hanau Weather History for the Previous 24 Hours

Scroll right to see more
 ConditionsComfort  
Time TempWeatherWind HumidityBarometerVisibility
11:50 pm
Sat, Jul 22
68 °FClear.6 mph83%29.86 "Hg10 mi
11:20 pm68 °FClear.6 mph83%29.86 "Hg10 mi
10:50 pm66 °FClear.2 mph88%29.86 "Hg10 mi
10:20 pm70 °FPassing clouds.3 mph78%29.86 "HgN/A
9:50 pm72 °FPassing clouds.7 mph73%29.89 "HgN/A
9:24 pm73 °FScattered showers. Passing clouds.8 mph69%29.89 "HgN/A
8:54 pm75 °FThunderstorms. Scattered clouds.8 mph69%29.89 "HgN/A
8:50 pm73 °FThundershowers. Scattered clouds.8 mph74%29.86 "HgN/A
8:32 pm75 °FScattered showers. Passing clouds.8 mph69%29.89 "HgN/A
8:20 pm73 °FRain showers. Scattered clouds.8 mph74%29.89 "HgN/A
7:50 pm75 °FScattered clouds.9 mph74%29.89 "HgN/A
7:20 pm75 °FScattered clouds.10 mph74%29.89 "HgN/A
6:50 pm79 °FScattered showers. Broken clouds.7 mph58%29.89 "HgN/A
6:29 pm79 °FScattered showers. Broken clouds.12 mph65%29.89 "HgN/A
6:20 pm79 °FThunderstorms. Broken clouds.10 mph65%29.89 "HgN/A
5:50 pm79 °FScattered showers. Broken clouds.8 mph61%29.89 "HgN/A
5:20 pm77 °FBroken clouds.9 mph69%29.89 "HgN/A
4:50 pm77 °FBroken clouds.7 mph69%29.92 "HgN/A
4:20 pm75 °FScattered showers. Broken clouds.3 mph74%29.92 "HgN/A
3:56 pm72 °FRain showers. Partly sunny.5 mph83%29.92 "HgN/A
3:50 pm72 °FSprinkles. Partly sunny.6 mph83%29.92 "HgN/A
2:50 pm75 °FThundershowers. Broken clouds.8 mph69%29.92 "HgN/A
2:23 pm72 °FThundershowers. Broken clouds.8 mph83%29.92 "HgN/A
1:52 pm68 °FThunderstorms. Partly sunny.10 mph88%29.92 "HgN/A
1:50 pm70 °FThunderstorms. Partly sunny.10 mph88%29.95 "HgN/A
1:26 pm72 °FThunderstorms. Broken clouds.6 mph83%29.95 "HgN/A
1:20 pm72 °FSprinkles. Broken clouds.7 mph78%29.92 "HgN/A
12:50 pm75 °FSprinkles. Broken clouds.6 mph65%29.92 "HgN/A
12:20 pm75 °FScattered showers. Scattered clouds.6 mph65%29.92 "HgN/A
11:50 am75 °FScattered clouds.8 mph69%29.95 "HgN/A
11:20 am73 °FScattered clouds.6 mph69%29.95 "HgN/A
10:50 am73 °FScattered clouds.5 mph69%29.92 "HgN/A
10:20 am72 °FPartly sunny.7 mph73%29.92 "HgN/A
9:50 am70 °FScattered clouds.6 mph78%29.92 "HgN/A
9:20 am68 °FScattered clouds.6 mph88%29.92 "HgN/A
8:55 am68 °FScattered clouds.6 mph88%29.92 "HgN/A
8:20 am66 °FBroken clouds.7 mph94%29.92 "HgN/A
7:50 am66 °FBroken clouds.6 mph94%29.92 "HgN/A
7:20 am64 °FPartly sunny.3 mph94%29.92 "HgN/A
6:50 am64 °FPartly sunny.2 mph94%29.92 "HgN/A
6:20 am64 °FPartly sunny.3 mph94%29.89 "HgN/A
5:20 am64 °FLight rain. Passing clouds.5 mph94%29.89 "HgN/A
4:50 am64 °FPartly cloudy.8 mph100%29.89 "HgN/A
4:20 am66 °FPartly cloudy.2 mph94%29.86 "HgN/A
3:56 am64 °FPartly cloudy.8 mph100%29.86 "HgN/A
3:20 am64 °FPartly cloudy.2 mph100%29.86 "HgN/A
2:50 am64 °FPartly cloudy.5 mph100%29.89 "HgN/A
2:20 am64 °FRain showers. Passing clouds.7 mph100%29.92 "Hg5 mi
1:50 am66 °FRain showers. Passing clouds.5 mph94%29.92 "Hg5 mi
1:01 am66 °FSprinkles. Passing clouds.16 mph94%29.89 "HgN/A
Weather by CustomWeather, © 2017

See weather overviewHow to use our weather pages